TimeCST,TemperatureF,Dew PointF,Humidity,Sea Level PressureIn,VisibilityMPH,Wind Direction,Wind SpeedMPH,Gust SpeedMPH,PrecipitationIn,Events,Conditions,WindDirDegrees,DateUTC
12:52 AM,55.0,52.0,89,30.09,10.0,SSE,6.9,-,N/A,,Clear,150,2012-11-20 06:52:00
2:52 AM,55.0,51.1,86,30.11,10.0,NW,4.6,-,N/A,,Clear,310,2012-11-20 08:52:00
3:52 AM,48.9,48.0,97,30.11,10.0,South,8.1,-,N/A,,Clear,170,2012-11-20 09:52:00
4:52 AM,50.0,48.0,93,30.10,10.0,South,6.9,-,N/A,,Clear,190,2012-11-20 10:52:00
5:52 AM,48.0,45.0,89,30.14,10.0,West,3.5,-,N/A,,Clear,260,2012-11-20 11:52:00
6:52 AM,48.9,45.0,86,30.15,10.0,WNW,4.6,-,N/A,,Clear,290,2012-11-20 12:52:00
7:52 AM,46.9,43.0,86,30.19,10.0,Calm,Calm,-,N/A,,Clear,0,2012-11-20 13:52:00
8:52 AM,54.0,43.0,66,30.20,10.0,WNW,3.5,-,N/A,,Clear,300,2012-11-20 14:52:00
9:52 AM,57.9,41.0,53,30.21,10.0,WNW,5.8,-,N/A,,Clear,300,2012-11-20 15:52:00
10:52 AM,64.0,44.1,48,30.21,10.0,NW,6.9,-,N/A,,Clear,310,2012-11-20 16:52:00
11:52 AM,66.9,44.1,44,30.18,10.0,NW,5.8,-,N/A,,Clear,310,2012-11-20 17:52:00
12:52 PM,71.1,45.0,39,30.16,10.0,NNW,8.1,-,N/A,,Clear,340,2012-11-20 18:52:00
1:52 PM,73.0,42.1,33,30.14,10.0,North,5.8,-,N/A,,Clear,360,2012-11-20 19:52:00
2:52 PM,73.9,41.0,30,30.12,10.0,Calm,Calm,-,N/A,,Clear,0,2012-11-20 20:52:00
3:52 PM,73.9,39.9,29,30.12,10.0,Calm,Calm,-,N/A,,Clear,0,2012-11-20 21:52:00
4:52 PM,73.0,39.9,30,30.13,10.0,Calm,Calm,-,N/A,,Clear,0,2012-11-20 22:52:00
5:52 PM,68.0,39.9,36,30.14,10.0,Calm,Calm,-,N/A,,Clear,0,2012-11-20 23:52:00
6:52 PM,61.0,41.0,48,30.17,10.0,East,6.9,-,N/A,,Clear,100,2012-11-21 00:52:00
7:52 PM,55.9,42.1,60,30.19,10.0,South,5.8,-,N/A,,Clear,180,2012-11-21 01:52:00
8:52 PM,55.0,41.0,59,30.20,10.0,SSE,5.8,-,N/A,,Clear,150,2012-11-21 02:52:00
9:52 PM,52.0,41.0,66,30.20,10.0,South,3.5,-,N/A,,Clear,180,2012-11-21 03:52:00
10:52 PM,52.0,39.9,63,30.18,10.0,South,4.6,-,N/A,,Clear,180,2012-11-21 04:52:00
11:52 PM,50.0,39.0,66,30.18,10.0,South,3.5,-,N/A,,Clear,180,2012-11-21 05:52:00